Regional Weather Roundup
Issued by NWS Wakefield, VA

Home | Current Version | Previous Version | Graphics & Text | Print | Product List | Glossary On
Versions: 1 2 3 4 5 6 7 8 9 10 11 12 13 14 15 16 17 18 19 20 21 22 23 24 25 26 27 28 29 30 31 32 33 34 35 36 37 38 39 40 41 42 43 44 45 46 47 48 49 50
000
ASUS41 KAKQ 230110
RWRAKQ

REGIONAL WEATHER ROUNDUP
NATIONAL WEATHER SERVICE WAKEFIELD VA
900 PM EDT TUE JUL 22 2014

Note: "fair" indicates few or no clouds below 12,000 feet with no
significant weather and/or obstructions to visibility. * = Denotes
station may not report precipitation (e.g., rain,snow,etc.),
thunder or fog.

VAZ042-051-052>054-056-230200-
NORTHERN VIRGINIA

CITY           SKY/WX    TMP DP  RH WIND       PRES   REMARKS
WASH NATIONAL  PTCLDY    82  67  60 S10       30.08S
DULLES         CLEAR     77  69  76 S5        30.09R
FORT BELVOIR   CLEAR     76  70  80 E1        30.09R
QUANTICO       CLEAR     80  71  74 SE10      30.08S
FREDERICKSBRG* CLEAR     79  72  77 SE5       30.07S
STAFFORD*      CLEAR     77  76  96 CALM      30.12S
WARRENTON      CLEAR     77  75  94 CALM      30.09R
CULPEPER*      PTCLDY   N/A N/A N/A CALM      30.09R
MANASSAS*      NOT AVBL
LEESBURG*      CLEAR     81  73  78 S6        30.10R
WINCHESTER     CLEAR     77  70  78 SE3       30.08S
$$

VAZ048-049-060>072-079>083-230200-
CENTRAL AND SOUTH CENTRAL VIRGINIA...AND NORTH CENTRAL NORTH CAROLINA

CITY           SKY/WX    TMP DP  RH WIND       PRES   REMARKS
RICHMOND       PTCLDY    79  69  71 SE7       30.09S
CHESTERFIELD*  CLEAR     81  63  54 SE3       30.11R
HANOVER        CLEAR     79  68  69 SE3       30.10S
TAPPAHANNOCK*  CLEAR     77  65  68 SE3       30.10S
CHARLOTTSVILLE PTCLDY    77  70  79 S5        30.09R
ORANGE*        CLEAR     77  70  78 CALM      30.11R
LOUISA*        CLEAR     73  72  94 CALM      30.08S
FARMVILLE*     CLEAR     79  70  73 CALM      30.08R
SOUTH HILL*    PTCLDY    75  73  94 CALM      30.15S
ROANOKE RAPIDS PTCLDY    75  72  88 CALM      30.10S
RALEIGH        PTCLDY    76  71  85 CALM      30.10R
$$

VAZ088>098-230200-
SOUTHEAST VIRGINIA

CITY           SKY/WX    TMP DP  RH WIND       PRES   REMARKS
NORFOLK        PTCLDY    77  72  84 E7        30.10S
VIRGINIA BEACH MOCLDY    75  73  93 E6        30.09F
NORFOLK NAVAL  MOCLDY    78  72  81 E6        30.11S
WEST POINT*    CLEAR     78  69  73 E5        30.11S
NEWPORT NEWS   PTCLDY    79  72  79 E6        30.10S
LANGLEY AFB    PTCLDY    77  77 100 SE8       30.09F
FORT EUSTIS    PTCLDY    79  72  79 SE6       30.08S
WILLIAMSBURG*  CLEAR     79  72  78 CALM      30.11R
FRANKLIN*      PTCLDY    73 N/A N/A CALM      30.10S
WAKEFIELD      CLOUDY    78  72  81 CALM      30.10R
$$

VAZ020-022-025-037-045-230200-
WESTERN AND SOUTHWEST VIRGINIA

CITY           SKY/WX    TMP DP  RH WIND       PRES   REMARKS
STAUNTON*      CLEAR     78  68  72 S3        30.13S
HOT SPRINGS VA CLEAR     67  63  87 S8        30.27S
LYNCHBURG      CLEAR     78  70  76 S5        30.13R
DANVILLE       CLEAR     78  71  79 S3        30.11R
MARTINSVILLE   PTCLDY    77  70  79 CALM      30.14S
ROANOKE        PTCLDY    79  68  69 SE8       30.13S
BLACKSBURG     CLEAR     75  70  83 SE5       30.20R
DUBLIN*        PTCLDY    76  68  77 SE3       30.18R
MARION*        CLEAR     75  68  79 CALM      30.22R
HILLSVILLE*    CLEAR     71  67  88 CALM      30.21R
RICHLANDS*     PTCLDY    78  65  62 SE5       30.18S
WISE*          CLEAR     77  63  61 CALM      30.19S
ABINGDON*      PTCLDY    79  67  66 SE3       30.15R
$$

MDZ021>025-VAZ099-100-230200-
SOUTHERN MARYLAND AND THE DELMARVA PENINSULA

CITY           SKY/WX    TMP DP  RH WIND       PRES   REMARKS
PATUXENT RIVER PTCLDY    76  66  71 S6        30.09S
BAY BRIDGE APT   N/A     79  64  61 S6        30.09S
LEONARDTOWN    CLEAR     75  64  69 SE3       30.11S
DOVER          PTCLDY    74  67  77 SE7       30.08S
GEORGETOWN     CLEAR     73  64  73 S13       30.11S
EASTON         PTCLDY    81  66  61 S3        30.13S
CAMBRIDGE      CLEAR     77  61  57 CALM      30.10S
SALISBURY      NOT AVBL
OCEAN CITY     PTCLDY    73  67  81 S3        30.11S
WALLOPS ISLAND PTCLDY    75  71  87 S5        30.11F
ACCOMACK*        N/A     73  70  88 CALM      30.11S
$$

NCZ012>017-030>032-230200-
EASTERN NORTH CAROLINA

CITY           SKY/WX    TMP DP  RH WIND       PRES   REMARKS
ELIZABETH CITY MOCLDY    76  72  87 CALM      30.10S
AHOSKIE*       CLEAR     73  71  93 CALM      30.10S
EDENTON*       CLOUDY    76  74  93 SE5       30.10S
CURRITUCK*     MOCLDY    78  68  72 CALM      30.11S
KILL DEVIL HLS MOCLDY    77  75  94 S3        30.10R
MANTEO         NOT AVBL
CAPE HATTERAS  MOCLDY    78  75  90 SW8       30.11F
GOLDSBORO      MOCLDY    77  76  99 NE2       30.07S
WASHINGTON     MOCLDY    75  74  95 CALM      30.10S
GREENVILLE     MOCLDY    77  75  94 CALM      30.11S
NEW BERN       LGT RAIN  79  75  89 CALM      30.10S
WILMINGTON     CLOUDY    79  75  87 S7        30.09R
$$

VAZ048-230200-
ELSEWHERE

CITY           SKY/WX    TMP DP  RH WIND       PRES   REMARKS
HARRISBURG PA  PTCLDY    81  70  69 S6        30.06S
BALTIMORE      PTCLDY    77  65  66 S3        30.08R
ANNAPOLIS      PTCLDY    79  65  62 S9        30.08F
ANDREWS AFB    CLEAR     76  68  76 SE8       30.09S
WILMINGTON DE  CLEAR     78  64  61 S15       30.10S
PHILADELPHIA   PTCLDY    79  60  52 S9        30.09F
WILDWOOD NJ*   PTCLDY    72  66  83 S6        30.12S
ATLANTIC CITY  PTCLDY    73  67  81 S6        30.11S
HENDERSON NC   PTCLDY    76  72  87 CALM      30.11R
GREENSBORO     MOCLDY    78  68  71 CALM      30.12R
ROCKY MOUNT    MOCLDY    75  72  90 NE3       30.10R
FAYETTEVILLE   CLOUDY    79  73  82 NE6       30.08R
CHARLOTTE      MOCLDY    76  70  82 NW3       30.11S
$$

VAZ100-230200-
MARINE

STATION/POSITION TIME  TEMP    WIND        PRES    WAVE   SWELL
                       AIR SEA DIR/SP/G            HT/PER HT/PER
                 (UTC) (F)     (DEG/KT/KT) (MB)    (FT/S) (FT/S)
44066 TX TWR #4  0100   73 74  220/ 10/ 12 1019.6S   2/ 7   2/ 7
CAPE MAY NJ      0100   72 77  180/  6/  8 1019.5R
LEWES DE         0100   73 72  180/  6/ 10 1019.1F
15NM E FENWICK I 0100   75 77              1019.9S   2/ 8
OCEAN-CITY-INLET 0100   73 73  190/  4/  5 1019.3F
WACHAPREAGUE VA  0100   75 82   90/  4/  5 1019.4F
THOMAS POINT MD  0100   80 79  180/ 16/ 18 1019.1F
COVE POINT MD    0100   79     180/ 13/ 15 1018.8S
SOLOMONS ISLAND  0100      82                N/A
BISHOPS HEAD MD  0100   79 83  140/ 10/ 11 1018.8S
PINEY POINT MD   0100          180/ 11/ 12   N/A
CAMBRIDGE MD     0100   79 80  170/  3/  7 1018.9R
LEWISETTA VA     0100   78 82  170/  6/  7 1018.8F
RAPPAHANNOCK LGT 0100          120/  8/  9 1019.9S
YORK RVR RNG VA  0100   77     140/ 12/ 14 1018.6F
YORKTOWN VA      0100   77 80  120/  8/ 10 1018.8F
DOMINION TERM VA 0100   78      70/  9/ 13 1019.2R
KIPTOPEKE VA     0100      80  130/  5/  5   N/A
CHES BAY BRIDGE  0100   76 77   80/  7/  9 1018.7S
CAPE HENRY VA    0100   76     100/  7/  8 1018.1S
WILLOUBY STN VA  0100          100/ 10/ 12 1018.4S
S CRANEY ISL VA  0100          100/  4/  8 1019.2R
CAPE HENRY BUOY  0000      76                N/A     2/10
CAPE CHARLES BUO 0100      76                N/A     2/10
OFFSHORE WE BUOY 0000      77                N/A     2/ 7
64NM E OF VA BCH 0100   77 78  170/  6/  8 1019.3S   2/ 7   2/ 7
DUCK PIER NC     0100   78 73  190/  2/  3 1018.6F
44056 DUCK FRF   0000                        N/A     2/ 8
OREGON INLET NC  0100   78 79  190/ 11/ 12 1019.5S
HATTERAS NC      0100   78 82  180/  4/  7 1019.9S
DIAMOND SHLS NC  0100          VRB 14/ 16  1019.3F   4/ 7   2/ 7
CAPE LOOKOUT NC  0000   79     190/ 18/ 20 1018.9F
$$



USA.gov is the U.S. government's official web portal to all federal, state and local government web resources and services.